CST,Max TemperatureF,Mean TemperatureF,Min TemperatureF,Max Dew PointF,MeanDew PointF,Min DewpointF,Max Humidity, Mean Humidity, Min Humidity, Max Sea Level PressureIn, Mean Sea Level PressureIn, Min Sea Level PressureIn, Max VisibilityMiles, Mean VisibilityMiles, Min VisibilityMiles, Max Wind SpeedMPH, Mean Wind SpeedMPH, Max Gust SpeedMPH,PrecipitationIn, CloudCover, Events, WindDirDegrees
2014-1-1,13,9,4,7,5,-1,83,78,73,30.38,30.21,30.09,10,6,0,21,16,27,0.23,6,Fog-Snow,27
2014-1-2,10,0,-10,-3,-7,-13,83,67,50,30.55,30.46,30.28,10,10,10,20,10,23,0.00,3,,341
2014-1-3,29,11,-7,20,6,-12,75,69,62,30.49,30.10,29.73,10,10,10,25,14,34,0.00,1,,178
2014-1-4,34,23,11,25,14,3,75,69,63,30.16,29.94,29.73,10,9,2,25,16,31,T,7,Snow,332
2014-1-5,11,1,-10,1,-9,-22,73,58,42,30.52,30.33,30.14,10,10,10,30,20,40,0.00,4,,347
2014-1-6,-2,-8,-14,-13,-18,-23,71,63,54,30.56,30.48,30.38,10,10,8,26,15,34,T,2,,285
2014-1-7,21,8,-6,7,-1,-13,75,66,56,30.39,30.25,30.13,10,10,10,17,6,21,0.00,4,,211
2014-1-8,17,13,9,7,4,2,76,68,59,30.48,30.41,30.29,10,10,9,14,8,17,T,6,,49
2014-1-9,23,15,7,22,11,2,100,83,66,30.43,30.21,30.04,10,9,1,10,7,14,0.00,8,,136
2014-1-10,35,30,24,35,31,23,100,96,92,30.03,29.69,29.55,9,3,0,15,7,21,0.00,8,Fog,209
2014-1-11,38,33,28,31,27,24,92,78,64,29.89,29.73,29.57,10,8,4,20,11,24,0.00,2,,268
2014-1-12,49,39,28,32,28,25,85,68,50,29.82,29.63,29.51,10,10,10,18,11,24,0.00,1,,215
2014-1-13,40,35,29,32,28,24,82,73,64,29.84,29.77,29.64,10,10,10,21,12,26,0.00,3,,271
2014-1-14,40,30,20,31,19,11,78,66,53,30.18,29.99,29.68,10,9,1,36,20,45,T,6,Snow,309
2014-1-15,30,22,14,19,10,6,74,58,42,30.24,30.09,29.78,10,9,2,20,10,25,T,6,Snow,276
2014-1-16,40,26,11,31,20,1,85,67,48,30.01,29.80,29.69,10,6,0,43,19,52,0.02,7,Fog-Snow,303
2014-1-17,25,16,7,10,5,-1,76,63,49,30.15,30.04,29.95,10,8,1,30,15,37,T,5,Snow,306
2014-1-18,42,29,15,32,18,5,88,68,47,30.09,29.82,29.61,10,10,6,38,18,52,0.01,6,Rain-Snow,284
2014-1-19,52,34,16,28,22,13,88,63,38,30.04,29.84,29.70,10,10,10,23,14,28,0.00,0,,242
2014-1-20,46,28,9,30,22,1,85,69,53,30.34,30.03,29.83,10,9,2,38,15,49,T,4,Snow,310
2014-1-21,17,7,-3,2,-4,-10,76,62,48,30.51,30.35,30.13,10,10,8,28,9,37,0.00,4,,293
2014-1-22,25,12,-1,12,4,-11,67,58,49,30.55,30.19,30.00,10,10,7,31,17,38,T,5,Snow,315
2014-1-23,11,3,-6,-6,-9,-13,72,59,46,30.85,30.74,30.58,10,10,10,21,12,27,0.00,0,,303
2014-1-24,43,23,3,32,8,-6,68,50,32,30.58,30.05,29.68,10,10,10,33,21,42,T,3,,229
2014-1-25,44,34,23,33,13,-6,75,51,27,30.03,29.87,29.64,10,10,10,30,16,39,0.00,5,,303
2014-1-26,51,29,7,29,19,-9,69,54,38,30.24,29.73,29.52,10,10,10,41,22,55,T,4,,300
2014-1-27,10,4,-2,-8,-11,-13,65,53,41,30.56,30.46,30.27,10,10,10,31,12,40,0.00,0,,323
2014-1-28,20,8,-4,-3,-8,-11,72,53,33,30.54,30.44,30.32,10,10,10,21,8,27,0.00,0,,261
2014-1-29,39,21,3,11,5,-6,86,57,27,30.30,30.09,29.80,10,10,10,24,15,31,0.00,0,,203
2014-1-30,43,30,17,26,14,5,67,53,38,30.09,29.77,29.58,10,10,9,31,18,39,0.01,3,Rain,253
2014-1-31,18,15,11,13,7,0,80,68,56,30.22,30.10,29.96,10,6,1,17,9,22,0.08,8,Snow,48